• In Belarus
  • List of Countries
  • For 7 days
  • Water Temperature
  • Satellite Maps
  • Weather Map
  • Weather Widgets
  • user-avatar
    Login

    Hourly Weather Yulara

    Today, 19 September, Wednesday

    Time Temperature Precipitation Wind Pressure Humidity
    00:00 +16°C° 0 mm 7 mps 720 mmHg 33%
    01:00 +15°C° 0 mm 7 mps 720 mmHg 37%
    02:00 +14°C° 0 mm 7 mps 720 mmHg 42%
    03:00 +12°C° 0 mm 7 mps 720 mmHg 46%
    04:00 +12°C° 0 mm 7 mps 720 mmHg 50%
    05:00 +11°C° 0 mm 7 mps 720 mmHg 54%
    06:00 +10°C° 0 mm 7 mps 721 mmHg 58%
    07:00 +11°C° 0 mm 7 mps 721 mmHg 52%
    08:00 +13°C° 0 mm 8 mps 722 mmHg 45%
    09:00 +15°C° 0 mm 8 mps 723 mmHg 36%
    10:00 +17°C° 0 mm 8 mps 722 mmHg 30%
    11:00 +20°C° 0 mm 7 mps 722 mmHg 25%
    12:00 +21°C° 0 mm 7 mps 722 mmHg 19%
    13:00 +22°C° 0 mm 6 mps 721 mmHg 17%
    14:00 +23°C° 0 mm 6 mps 721 mmHg 15%
    15:00 +23°C° 0 mm 5 mps 721 mmHg 14%
    16:00 +23°C° 0 mm 5 mps 721 mmHg 14%
    17:00 +22°C° 0 mm 5 mps 721 mmHg 15%
    18:00 +21°C° 0 mm 4 mps 721 mmHg 15%
    19:00 +19°C° 0 mm 4 mps 721 mmHg 17%
    20:00 +17°C° 0 mm 5 mps 721 mmHg 19%
    21:00 +15°C° 0 mm 5 mps 722 mmHg 21%
    22:00 +15°C° 0 mm 5 mps 722 mmHg 24%
    23:00 +14°C° 0 mm 5 mps 722 mmHg 26%

    Tomorrow, 20 September, Thursday

    Time Temperature Precipitation Wind Pressure Humidity
    00:00 +13°C° 0 mm 5 mps 722 mmHg 28%
    01:00 +12°C° 0 mm 5 mps 722 mmHg 31%
    02:00 +12°C° 0 mm 5 mps 722 mmHg 33%
    03:00 +10°C° 0 mm 5 mps 722 mmHg 36%
    04:00 +10°C° 0 mm 5 mps 722 mmHg 40%
    05:00 +9°C° 0 mm 5 mps 722 mmHg 45%
    06:00 +9°C° 0 mm 5 mps 722 mmHg 50%
    07:00 +11°C° 0 mm 6 mps 723 mmHg 45%
    08:00 +14°C° 0 mm 7 mps 723 mmHg 40%
    09:00 +16°C° 0 mm 8 mps 723 mmHg 36%
    10:00 +18°C° 0 mm 8 mps 723 mmHg 32%
    11:00 +20°C° 0 mm 8 mps 723 mmHg 29%
    12:00 +22°C° 0 mm 8 mps 723 mmHg 26%
    13:00 +23°C° 0 mm 8 mps 722 mmHg 23%
    14:00 +24°C° 0 mm 7 mps 722 mmHg 21%
    15:00 +24°C° 0 mm 7 mps 722 mmHg 18%
    16:00 +23°C° 0 mm 6 mps 722 mmHg 19%
    17:00 +23°C° 0 mm 5 mps 722 mmHg 20%
    18:00 +22°C° 0 mm 4 mps 722 mmHg 22%
    19:00 +20°C° 0 mm 4 mps 722 mmHg 24%
    20:00 +19°C° 0 mm 3 mps 723 mmHg 26%
    21:00 +18°C° 0 mm 3 mps 723 mmHg 29%
    22:00 +18°C° 0 mm 3 mps 723 mmHg 30%
    23:00 +18°C° 0 mm 3 mps 723 mmHg 30%

    Day after tomorrow, 21 September, Friday

    Time Temperature Precipitation Wind Pressure Humidity
    00:00 +18°C° 0 mm 3 mps 723 mmHg 31%
    01:00 +17°C° 0 mm 3 mps 723 mmHg 31%
    02:00 +17°C° 0 mm 3 mps 723 mmHg 32%
    03:00 +16°C° 0 mm 3 mps 723 mmHg 33%
    04:00 +16°C° 0.3 mm 3 mps 723 mmHg 36%
    05:00 +14°C° 0.3 mm 4 mps 723 mmHg 40%
    06:00 +14°C° 0.3 mm 4 mps 724 mmHg 44%
    07:00 +14°C° 0.4 mm 4 mps 724 mmHg 46%
    08:00 +14°C° 0.4 mm 5 mps 725 mmHg 48%
    09:00 +14°C° 0.4 mm 5 mps 725 mmHg 51%
    10:00 +15°C° 0 mm 5 mps 725 mmHg 47%
    11:00 +16°C° 0 mm 6 mps 725 mmHg 44%
    12:00 +17°C° 0 mm 6 mps 725 mmHg 41%
    13:00 +19°C° 0 mm 5 mps 724 mmHg 39%
    14:00 +20°C° 0 mm 5 mps 724 mmHg 38%
    15:00 +20°C° 0 mm 5 mps 723 mmHg 36%
    16:00 +20°C° 0 mm 5 mps 723 mmHg 38%
    17:00 +19°C° 0 mm 4 mps 723 mmHg 40%
    18:00 +19°C° 0 mm 4 mps 723 mmHg 42%
    19:00 +18°C° 0 mm 4 mps 723 mmHg 44%
    20:00 +17°C° 0 mm 4 mps 724 mmHg 46%
    21:00 +16°C° 0 mm 3 mps 724 mmHg 48%
    22:00 +14°C° 0 mm 3 mps 724 mmHg 49%
    23:00 +14°C° 0 mm 3 mps 724 mmHg 50%

    22 September, Saturday

    Time Temperature Precipitation Wind Pressure Humidity
    00:00 +14°C° 0 mm 2 mps 724 mmHg 50%
    01:00 +13°C° 0 mm 3 mps 724 mmHg 50%
    02:00 +13°C° 0 mm 3 mps 723 mmHg 50%
    03:00 +12°C° 0 mm 3 mps 723 mmHg 50%
    04:00 +12°C° 0 mm 3 mps 723 mmHg 49%
    05:00 +12°C° 0 mm 3 mps 724 mmHg 49%
    06:00 +12°C° 0 mm 4 mps 724 mmHg 48%
    07:00 +15°C° 0 mm 5 mps 724 mmHg 40%
    08:00 +17°C° 0 mm 6 mps 725 mmHg 32%
    09:00 +21°C° 0 mm 7 mps 726 mmHg 24%
    10:00 +23°C° 0 mm 6 mps 725 mmHg 23%
    11:00 +24°C° 0 mm 6 mps 725 mmHg 22%
    12:00 +27°C° 0 mm 6 mps 724 mmHg 20%
    13:00 +28°C° 0 mm 5 mps 724 mmHg 19%
    14:00 +28°C° 0 mm 4 mps 723 mmHg 18%
    15:00 +29°C° 0 mm 4 mps 722 mmHg 17%
    16:00 +28°C° 0 mm 3 mps 722 mmHg 18%
    17:00 +27°C° 0 mm 3 mps 722 mmHg 19%
    18:00 +26°C° 0 mm 3 mps 722 mmHg 20%
    19:00 +25°C° 0 mm 4 mps 723 mmHg 21%
    20:00 +23°C° 0 mm 4 mps 723 mmHg 22%
    21:00 +22°C° 0 mm 5 mps 724 mmHg 23%
    22:00 +21°C° 0 mm 5 mps 724 mmHg 24%
    23:00 +20°C° 0 mm 5 mps 724 mmHg 24%

    23 September, Sunday

    Time Temperature Precipitation Wind Pressure Humidity
    00:00 +20°C° 0 mm 6 mps 724 mmHg 24%
    01:00 +19°C° 0 mm 5 mps 723 mmHg 24%
    02:00 +17°C° 0 mm 5 mps 723 mmHg 25%
    03:00 +17°C° 0 mm 5 mps 723 mmHg 26%
    04:00 +16°C° 0 mm 5 mps 723 mmHg 26%
    05:00 +16°C° 0 mm 5 mps 723 mmHg 27%
    06:00 +15°C° 0 mm 5 mps 723 mmHg 27%
    07:00 +17°C° 0 mm 5 mps 724 mmHg 23%
    08:00 +21°C° 0 mm 6 mps 724 mmHg 20%
    09:00 +23°C° 0 mm 7 mps 725 mmHg 16%
    10:00 +26°C° 0 mm 6 mps 724 mmHg 15%
    11:00 +27°C° 0 mm 5 mps 724 mmHg 14%
    12:00 +29°C° 0 mm 4 mps 723 mmHg 13%
    13:00 +29°C° 0 mm 4 mps 723 mmHg 13%
    14:00 +30°C° 0 mm 3 mps 722 mmHg 13%
    15:00 +30°C° 0 mm 3 mps 721 mmHg 13%
    16:00 +29°C° 0 mm 3 mps 721 mmHg 14%
    17:00 +28°C° 0 mm 3 mps 721 mmHg 14%
    18:00 +28°C° 0 mm 3 mps 721 mmHg 15%
    19:00 +26°C° 0 mm 3 mps 722 mmHg 16%
    20:00 +25°C° 0 mm 4 mps 722 mmHg 16%
    21:00 +23°C° 0 mm 4 mps 722 mmHg 17%
    22:00 +22°C° 0 mm 4 mps 722 mmHg 18%
    23:00 +21°C° 0 mm 4 mps 722 mmHg 19%

    24 September, Monday

    Time Temperature Precipitation Wind Pressure Humidity
    00:00 +20°C° 0 mm 4 mps 722 mmHg 20%
    01:00 +20°C° 0 mm 4 mps 722 mmHg 21%
    02:00 +19°C° 0 mm 4 mps 721 mmHg 21%
    03:00 +18°C° 0 mm 4 mps 721 mmHg 22%
    04:00 +18°C° 0 mm 4 mps 721 mmHg 22%
    05:00 +17°C° 0 mm 4 mps 721 mmHg 23%
    06:00 +17°C° 0 mm 4 mps 722 mmHg 23%
    07:00 +19°C° 0 mm 5 mps 722 mmHg 20%
    08:00 +22°C° 0 mm 6 mps 722 mmHg 17%
    09:00 +26°C° 0 mm 6 mps 723 mmHg 14%
    10:00 +27°C° 0 mm 6 mps 722 mmHg 14%
    11:00 +29°C° 0 mm 5 mps 722 mmHg 13%
    12:00 +30°C° 0 mm 4 mps 721 mmHg 12%
    13:00 +32°C° 0 mm 4 mps 720 mmHg 12%
    14:00 +32°C° 0 mm 4 mps 720 mmHg 12%
    15:00 +33°C° 0 mm 3 mps 719 mmHg 12%
    16:00 +31°C° 0 mm 3 mps 719 mmHg 12%
    17:00 +30°C° 0 mm 3 mps 719 mmHg 13%
    18:00 +29°C° 0 mm 3 mps 719 mmHg 14%
    19:00 +27°C° 0 mm 4 mps 720 mmHg 14%
    20:00 +26°C° 0 mm 4 mps 720 mmHg 15%
    21:00 +25°C° 0 mm 4 mps 721 mmHg 16%
    22:00 +23°C° 0 mm 4 mps 720 mmHg 16%
    23:00 +22°C° 0 mm 5 mps 720 mmHg 17%
    Show more